Location: Newark
(46.7000°N, 60.6000°W)
Time: 05:47:50
(UTC+00:00)

A-11 Canister half - Pass Details

Date: 05 November 2020
Orbit: 1525 x 1684 km, 47.3° (Epoch: 27 November)

Event Time Altitude Azimuth Distance (km) Brightness Sun altitude
Rises 17:19:56 0° 246° (WSW) 4,831 12.3 23.9°
Reaches altitude 10° 17:23:05 10° 245° (WSW) 3,825 12.0 23.6°
Maximum altitude 17:32:46 80° 161° (SSE) 1,595 9.6 22.9°
Drops below altitude 10° 17:42:11 10° 76° (ENE) 3,719 10.7 22.1°
Sets 17:45:12 0° 76° (ENE) 4,691 11.1 21.8°
